Location: Melbourne
(37.8170°S, 144.9670°E)
Time: 13:29:13
(UTC+10:00)

Daily predictions for brighter satellites

Satellite Brightness Start Highest point End
(mag) Time Altitude Azimuth Time Altitude Azimuth Time Altitude Azimuth
CENTAUR R/B 3.6 17:23:33 10° NW 17:31:25 57° SW 17:38:28 10° SSE
Cosmos 2084 4.4 17:34:57 10° SSW 17:39:25 33° SE 17:43:41 10° ENE
Radarsat Rocket 4.0 17:34:13 10° SSE 17:40:08 85° ENE 17:46:12 10° NNW
NOAA 6 4.4 17:35:23 10° S 17:40:35 70° WSW 17:45:45 10° NNW
Cosmos 1455 Rocket 4.1 17:39:28 10° NNW 17:43:47 50° W 17:48:12 10° S
Cosmos 2074 Rocket 4.3 17:38:02 10° NNE 17:44:01 49° E 17:50:05 10° SSE
Meteor 1-28 Rocket 3.7 17:42:03 10° N 17:45:48 67° W 17:49:37 10° SSW
SKYMED 2 3.8 17:42:11 10° N 17:46:33 77° WNW 17:50:59 10° SSW
Meteor 1-21 4.3 17:43:34 10° S 17:49:15 61° E 17:54:56 10° NNE
Cosmos 921 Rocket 3.3 17:45:39 10° N 17:49:40 46° E 17:53:47 10° SSE
MSX 4.4 17:49:18 10° SSE 17:54:37 37° E 17:59:52 10° NNE
SMAP 4.1 17:51:27 10° SE 17:55:23 25° E 17:59:15 10° NNE
Cosmos 2278 3.8 17:51:07 10° N 17:56:39 58° ENE 18:02:14 10° SSE
YAOGAN 1 4.1 17:54:09 11° SE 17:56:48 17° E 17:59:37 10° NE
Cosmos 2181 Rocket 4.3 17:50:52 10° S 17:57:21 77° W 18:03:39 10° N
CZ-4 R/B 2.5 17:57:21 10° SE 18:00:49 26° E 18:04:18 10° NNE
APEX 4.4 17:59:45 10° S 18:03:33 32° ESE 18:08:15 10° NE
Cosmos 1624 Rocket 4.1 17:59:45 10° NNW 18:05:04 82° WSW 18:10:26 10° SSE
Iridium 4 Rocket 4.1 18:00:56 10° NNW 18:05:58 58° W 18:10:39 10° S
Lacrosse 4 Rocket 1.4 18:01:59 10° SSW 18:06:05 81° WNW 18:10:08 10° NNE
Cosmos 1666 3.3 18:03:35 10° NNW 18:07:27 60° W 18:11:23 10° S
Cosmos 1602 Rocket 3.8 18:03:35 10° SSW 18:07:59 72° W 18:12:19 10° N
Cosmos 1980 Rocket 3.5 18:04:58 10° NE 18:08:54 20° E 18:11:04 16° ESE
Meteor 2-9 Rocket 4.2 18:03:37 10° N 18:09:25 76° E 18:15:08 10° SSE
Cosmos 1190 Rocket 4.0 18:06:36 10° SSW 18:11:57 65° ESE 18:17:15 10° NNE
BREEZE-M DEB (TANK) 3.6 18:09:30 10° SW 18:12:27 21° SSE 18:13:10 19° SE
Cosmos 2082 3.8 18:07:05 10° SSW 18:12:42 55° ESE 18:18:13 10° NE
SJ-12 3.9 18:09:37 10° SSE 18:13:46 65° E 18:17:50 10° N
ERS-2 3.5 18:11:05 10° S 18:14:38 41° WSW 18:18:08 10° NW
Abrixas 3.3 18:12:00 10° WSW 18:14:40 45° NW 18:17:17 10° NE
Cosmos 676 Rocket 4.4 18:10:20 10° S 18:15:26 41° ESE 18:20:27 10° NE
Cosmos 2228 4.3 18:12:31 10° NE 18:15:50 21° E 18:16:49 20° ESE
Cosmos 405 4.0 18:13:09 10° NNW 18:16:38 49° WSW 18:20:11 10° S
Meteor 1-15 Rocket 4.4 18:12:56 10° N 18:18:43 61° E 18:24:37 10° SSE
Cosmos 2184 Rocket 4.0 18:12:32 10° N 18:18:44 90° E 18:25:04 10° S
AQUARIUS 4.5 18:15:00 10° SSE 18:19:23 45° E 18:23:43 10° N
Tiangong 2 2.1 18:17:08 10° NW 18:20:10 36° NNE 18:21:31 24° E
Cosmos 2297 Rocket 2.2 18:15:23 10° SSW 18:21:02 61° ESE 18:26:38 10° NE
Meteor 1-4 Rocket 4.2 18:19:04 10° NE 18:21:04 18° ENE 18:21:04 18° ENE
Cosmos 2369 3.8 18:22:02 10° NNW 18:27:42 78° WSW 18:33:25 10° SSE
Cosmos 1437 Rocket 2.9 18:23:40 10° NNW 18:27:47 79° W 18:31:54 10° S
Cosmos 2056 Rocket 4.3 18:24:13 10° NW 18:29:22 53° WSW 18:34:41 10° S
COSMOS 2441 4.3 18:28:24 10° SSE 18:33:20 75° ENE 18:38:10 10° N
CZ-2C R/B 2.7 18:30:32 10° S 18:35:24 65° WSW 18:40:03 10° NNW
BREEZE-M DEB (TANK) 3.2 18:34:03 10° NNW 18:35:43 24° NNE 18:35:43 24° NNE
Cosmos 2058 Rocket 3.4 18:33:12 10° NNE 18:37:27 44° E 18:39:30 27° SE
Cosmos 2341 Rocket 4.2 18:32:12 10° NNE 18:38:13 48° E 18:44:15 10° SSE
IRS-1A Rocket 4.3 18:35:42 10° SSE 18:41:30 74° ENE 18:47:20 10° N
Cosmos 1656 3.8 18:38:31 10° NNW 18:44:14 77° WSW 18:49:20 14° SSE
ATLAS CENTAUR R/B 2.4 18:42:11 10° N 18:45:41 30° ENE 18:45:41 30° ENE
Cosmos 1726 Rocket 3.5 18:42:50 10° N 18:47:19 83° E 18:51:05 15° S
ASTRO F (AKARI) 4.2 18:44:13 10° NNE 18:47:28 76° ESE 18:50:55 10° S
Cosmos 1606 Rocket 3.7 18:44:18 10° N 18:48:48 79° W 18:53:22 10° S
ATLAS 5 CENTAUR R/B 2.7 18:44:18 10° SW 18:49:15 50° WNW 18:53:46 10° NNE
Cosmos 1697 Rocket 2.6 18:45:39 10° NNW 18:51:19 84° ENE 18:55:06 22° SSE
OAO 2 Rocket 3.7 18:48:47 10° WNW 18:53:36 50° NNE 18:55:08 36° ENE
Cosmos 1867 3.5 18:51:40 10° SSW 18:57:08 87° WNW 19:02:33 10° NNE
Ariane Rocket 4.2 18:53:24 10° S 18:58:13 41° WSW 19:02:59 10° NW
Cosmos 1140 Rocket 3.4 18:53:14 10° SSW 18:58:33 67° ESE 19:03:46 10° NNE
Cosmos 1452 Rocket 3.7 18:53:33 10° NNW 18:58:50 71° WSW 19:02:48 18° SSE
Cosmos 1758 Rocket 3.6 18:56:20 10° S 19:00:45 80° W 19:05:07 10° N
PSLV R/B 4.3 18:57:47 10° WSW 19:00:02 36° SW 19:00:02 36° SW
BREEZE-M DEB (TANK) 4.2 18:56:46 10° W 19:01:11 20° SSW 19:02:10 18° S
Cosmos 2227 Rocket 3.3 18:58:35 10° SW 19:04:00 45° WNW 19:09:21 10° N
Cosmos 2154 Rocket 4.2 19:01:24 10° NNW 19:07:35 70° W 19:13:52 10° S
CZ-4 R/B 4.4 19:09:06 55° S 19:09:59 82° WSW 19:14:07 10° NNW
IDEFIX/ARIANE 42P 4.4 19:05:40 10° S 19:10:08 28° WSW 19:14:35 10° NW
Nadezhda 3 Rocket 4.2 19:04:44 10° S 19:11:12 77° W 19:17:33 10° N
Lacrosse 5 rocket 1.9 19:09:09 10° NNW 19:12:51 50° NNE 19:12:51 50° NNE
Cosmos 1023 Rocket 4.5 19:09:16 10° SSW 19:14:38 86° WNW 19:19:53 10° NNE
Cosmos 1484 Rocket 4.0 19:17:54 26° SSW 19:19:47 43° WSW 19:23:35 10° NW
Cosmos 1954 Rocket 4.4 19:14:35 10° SSW 19:19:54 63° WNW 19:25:07 10° N
CZ-3 Stage 3 3.0 19:16:54 10° WNW 19:24:39 30° N 19:25:07 29° N
USA 229 DEB 3.7 19:18:40 10° NNW 19:25:57 69° ENE 19:27:27 56° ESE
USA 229 3.7 19:18:46 10° NNW 19:26:04 69° ENE 19:27:32 56° ESE
Hubble Space Telescope 3.5 19:28:10 10° N 19:28:20 10° N 19:28:20 10° N
Cosmos 1809 Rocket 4.5 19:26:36 10° N 19:31:57 61° NE 19:31:57 61° NE
YAOGAN 1 3.9 19:31:20 27° SSW 19:33:01 38° WSW 19:37:04 10° NW
CZ-4 R/B 3.7 19:33:05 13° SSW 19:35:43 23° WSW 19:38:58 10° WNW
Cosmos 614 Rocket 4.3 19:31:22 10° SSW 19:36:35 66° WNW 19:39:37 25° N
CZ-4C R/B 4.5 19:34:33 10° S 19:35:18 12° S 19:35:18 12° S
SL-16 R/B 4.1 19:44:15 10° N 19:45:37 18° N 19:45:37 18° N
Cosmos 2218 Rocket 4.0 19:44:25 10° N 19:50:41 84° NW 19:50:41 84° NW
Cosmos 1980 Rocket 2.8 19:46:58 10° NW 19:52:25 51° WSW 19:52:54 50° SW
SL-8 Rocket 4.2 19:48:36 10° NNW 19:54:49 66° W 19:56:11 52° SSW
Milstar 3 4.2 19:45:55 10° W 19:59:35 45° NNW 20:02:50 34° NNE
Cosmos 2322 Rocket 4.4 20:16:07 10° NNW 20:17:11 16° NNW 20:17:11 16° NNW
ATLAS CENTAUR R/B 4.4 20:21:15 10° WNW 20:22:01 14° W 20:22:01 14° W
